28/04/2024 15:45:00,0.162
28/04/2024 16:00:00,0.163
28/04/2024 16:15:00,0.162
28/04/2024 16:30:00,0.162
28/04/2024 16:45:00,0.162
28/04/2024 17:00:00,0.161
28/04/2024 17:15:00,0.162
28/04/2024 17:30:00,0.161
28/04/2024 17:45:00,0.161
28/04/2024 18:00:00,0.161
28/04/2024 18:15:00,0.161
28/04/2024 18:30:00,0.161
28/04/2024 18:45:00,0.16
28/04/2024 19:00:00,0.161
28/04/2024 19:15:00,0.16
28/04/2024 19:30:00,0.16
28/04/2024 19:45:00,0.16
28/04/2024 20:00:00,0.16
28/04/2024 20:15:00,0.16
28/04/2024 20:30:00,0.16
28/04/2024 20:45:00,0.159
28/04/2024 21:00:00,0.159
28/04/2024 21:15:00,0.159
28/04/2024 21:30:00,0.159
28/04/2024 21:45:00,0.159
28/04/2024 22:00:00,0.159
28/04/2024 22:15:00,0.159
28/04/2024 22:30:00,0.159
28/04/2024 22:45:00,0.159
28/04/2024 23:00:00,0.159
28/04/2024 23:15:00,0.159
28/04/2024 23:30:00,0.159
28/04/2024 23:45:00,0.159
29/04/2024 00:00:00,0.158
29/04/2024 00:15:00,0.159
29/04/2024 00:30:00,0.159
29/04/2024 00:45:00,0.159
29/04/2024 01:00:00,0.16
29/04/2024 01:15:00,0.16
29/04/2024 01:30:00,0.16
29/04/2024 01:45:00,0.16
29/04/2024 02:00:00,0.16
29/04/2024 02:15:00,0.16
29/04/2024 02:30:00,0.161
29/04/2024 02:45:00,0.161
29/04/2024 03:00:00,0.161
29/04/2024 03:15:00,0.161
29/04/2024 03:30:00,0.161
29/04/2024 03:45:00,0.161
29/04/2024 04:00:00,0.161
29/04/2024 04:15:00,0.161
29/04/2024 04:30:00,0.161
29/04/2024 04:45:00,0.162
29/04/2024 05:00:00,0.162
29/04/2024 05:15:00,0.161
29/04/2024 05:30:00,0.163
29/04/2024 05:45:00,0.162
29/04/2024 06:00:00,0.163
29/04/2024 06:15:00,0.162
29/04/2024 06:30:00,0.163
29/04/2024 06:45:00,0.162
29/04/2024 07:00:00,0.163
29/04/2024 07:15:00,0.163
29/04/2024 07:30:00,0.162
29/04/2024 07:45:00,0.163
29/04/2024 08:00:00,0.163
29/04/2024 08:15:00,0.163
29/04/2024 08:30:00,0.163
29/04/2024 08:45:00,0.163
29/04/2024 09:00:00,0.164
29/04/2024 09:15:00,0.164
29/04/2024 09:30:00,0.164
29/04/2024 09:45:00,0.163
29/04/2024 10:00:00,0.163
29/04/2024 10:15:00,0.164
29/04/2024 10:30:00,0.164
29/04/2024 10:45:00,0.164
29/04/2024 11:00:00,0.164
29/04/2024 11:15:00,0.164
29/04/2024 11:30:00,0.164
29/04/2024 11:45:00,0.165
29/04/2024 12:00:00,0.165
29/04/2024 12:15:00,0.165
29/04/2024 12:30:00,0.165
29/04/2024 12:45:00,0.165
29/04/2024 13:00:00,0.166
29/04/2024 13:15:00,0.166
29/04/2024 13:30:00,0.167
29/04/2024 13:45:00,0.168
29/04/2024 14:00:00,0.168
29/04/2024 14:15:00,0.169
29/04/2024 14:30:00,0.17
29/04/2024 14:45:00,0.171
29/04/2024 15:00:00,0.171
29/04/2024 15:15:00,0.173
29/04/2024 15:30:00,0.174
29/04/2024 15:45:00,0.176
29/04/2024 16:00:00,0.177
29/04/2024 16:15:00,0.178
29/04/2024 16:30:00,0.179
29/04/2024 16:45:00,0.18
29/04/2024 17:00:00,0.181
29/04/2024 17:15:00,0.182
29/04/2024 17:30:00,0.183
29/04/2024 17:45:00,0.185
29/04/2024 18:00:00,0.185
29/04/2024 18:15:00,0.186
29/04/2024 18:30:00,0.188
29/04/2024 18:45:00,0.189
29/04/2024 19:00:00,0.19
29/04/2024 19:15:00,0.191
29/04/2024 19:30:00,0.192
29/04/2024 19:45:00,0.192
29/04/2024 20:00:00,0.193
29/04/2024 20:15:00,0.194
29/04/2024 20:30:00,0.195
29/04/2024 20:45:00,0.195
29/04/2024 21:00:00,0.196
29/04/2024 21:15:00,0.197
29/04/2024 21:30:00,0.197
29/04/2024 21:45:00,0.198
29/04/2024 22:00:00,0.2
29/04/2024 22:15:00,0.2
29/04/2024 22:30:00,0.201
29/04/2024 22:45:00,0.203
29/04/2024 23:00:00,0.204
29/04/2024 23:15:00,0.204
29/04/2024 23:30:00,0.205
29/04/2024 23:45:00,0.205
30/04/2024 00:00:00,0.204
30/04/2024 00:15:00,0.204
30/04/2024 00:30:00,0.205
30/04/2024 00:45:00,0.204
30/04/2024 01:00:00,0.204
30/04/2024 01:15:00,0.204
30/04/2024 01:30:00,0.204
30/04/2024 01:45:00,0.204
30/04/2024 02:00:00,0.204
30/04/2024 02:15:00,0.204
30/04/2024 02:30:00,0.203
30/04/2024 02:45:00,0.203
30/04/2024 03:00:00,0.203
30/04/2024 03:15:00,0.203
30/04/2024 03:30:00,0.203
30/04/2024 03:45:00,0.203
30/04/2024 04:00:00,0.203
30/04/2024 04:15:00,0.203
30/04/2024 04:30:00,0.203
30/04/2024 04:45:00,0.204
30/04/2024 05:00:00,0.203
30/04/2024 05:15:00,0.203
30/04/2024 05:30:00,0.204
30/04/2024 05:45:00,0.204
30/04/2024 06:00:00,0.204
30/04/2024 06:15:00,0.205
30/04/2024 06:30:00,0.204
30/04/2024 06:45:00,0.205
30/04/2024 07:00:00,0.205
30/04/2024 07:15:00,0.206
30/04/2024 07:30:00,0.206
30/04/2024 07:45:00,0.206
30/04/2024 08:00:00,0.207
30/04/2024 08:15:00,0.207
30/04/2024 08:30:00,0.207
30/04/2024 08:45:00,0.208
30/04/2024 09:00:00,0.208
30/04/2024 09:15:00,0.209
30/04/2024 09:30:00,0.209
30/04/2024 09:45:00,0.21
30/04/2024 10:00:00,0.211
30/04/2024 10:15:00,0.211
30/04/2024 10:30:00,0.212
30/04/2024 10:45:00,0.212
30/04/2024 11:00:00,0.214
30/04/2024 11:15:00,0.214
30/04/2024 11:30:00,0.215
30/04/2024 11:45:00,0.217
30/04/2024 12:00:00,0.217
30/04/2024 12:15:00,0.218
30/04/2024 12:30:00,0.22
30/04/2024 12:45:00,0.221
30/04/2024 13:00:00,0.223
30/04/2024 13:15:00,0.224
30/04/2024 13:30:00,0.226
30/04/2024 13:45:00,0.228
30/04/2024 14:00:00,0.23
30/04/2024 14:15:00,0.23
30/04/2024 14:30:00,0.232
30/04/2024 14:45:00,0.232
30/04/2024 15:00:00,0.232
30/04/2024 15:15:00,0.233
30/04/2024 15:30:00,0.233
30/04/2024 15:45:00,0.232
30/04/2024 16:00:00,0.232
30/04/2024 16:15:00,0.231
30/04/2024 16:30:00,0.231
30/04/2024 16:45:00,0.231
30/04/2024 17:00:00,0.231
30/04/2024 17:15:00,0.23
30/04/2024 17:30:00,0.23
30/04/2024 17:45:00,0.229
30/04/2024 18:00:00,0.228
30/04/2024 18:15:00,0.228
30/04/2024 18:30:00,0.226
30/04/2024 18:45:00,0.226
30/04/2024 19:00:00,0.225
30/04/2024 19:15:00,0.225
30/04/2024 19:30:00,0.224
30/04/2024 19:45:00,0.223
30/04/2024 20:00:00,0.223
30/04/2024 20:15:00,0.222
30/04/2024 20:30:00,0.221
30/04/2024 20:45:00,0.221
30/04/2024 21:00:00,0.22
30/04/2024 21:15:00,0.219
30/04/2024 21:30:00,0.218
30/04/2024 21:45:00,0.218
30/04/2024 22:00:00,0.217
30/04/2024 22:15:00,0.216
30/04/2024 22:30:00,0.215
30/04/2024 22:45:00,0.215
30/04/2024 23:00:00,0.214
30/04/2024 23:15:00,0.213
30/04/2024 23:30:00,0.213
30/04/2024 23:45:00,0.212
01/05/2024 00:00:00,0.211
01/05/2024 00:15:00,0.211
01/05/2024 00:30:00,0.21
01/05/2024 00:45:00,0.21
01/05/2024 01:00:00,0.209
01/05/2024 01:15:00,0.208
01/05/2024 01:30:00,0.207
01/05/2024 01:45:00,0.208
01/05/2024 02:00:00,0.207
01/05/2024 02:15:00,0.207
01/05/2024 02:30:00,0.206
01/05/2024 02:45:00,0.205
01/05/2024 03:00:00,0.206
01/05/2024 03:15:00,0.205
01/05/2024 03:30:00,0.204
01/05/2024 03:45:00,0.204
01/05/2024 04:00:00,0.203
01/05/2024 04:15:00,0.203
01/05/2024 04:30:00,0.203
01/05/2024 04:45:00,0.202
01/05/2024 05:00:00,0.201
01/05/2024 05:15:00,0.202
01/05/2024 05:30:00,0.201
01/05/2024 05:45:00,0.201
01/05/2024 06:00:00,0.201
01/05/2024 06:15:00,0.199
01/05/2024 06:30:00,0.199
01/05/2024 06:45:00,0.199
01/05/2024 07:00:00,0.199
01/05/2024 07:15:00,0.198
01/05/2024 07:30:00,0.198
01/05/2024 07:45:00,0.198
01/05/2024 08:00:00,0.197
01/05/2024 08:15:00,0.198
01/05/2024 08:30:00,0.196
01/05/2024 08:45:00,0.196
01/05/2024 09:00:00,0.196
01/05/2024 09:15:00,0.195
01/05/2024 09:30:00,0.196
01/05/2024 09:45:00,0.195
01/05/2024 10:00:00,0.195
01/05/2024 10:15:00,0.195
01/05/2024 10:30:00,0.194
01/05/2024 10:45:00,0.194
01/05/2024 11:00:00,0.194
01/05/2024 11:15:00,0.193
01/05/2024 11:30:00,0.194
01/05/2024 11:45:00,0.193
01/05/2024 12:00:00,0.193
01/05/2024 12:15:00,0.192
01/05/2024 12:30:00,0.192
01/05/2024 12:45:00,0.191
01/05/2024 13:00:00,0.191
01/05/2024 13:15:00,0.191
01/05/2024 13:30:00,0.19
01/05/2024 13:45:00,0.19
01/05/2024 14:00:00,0.19
01/05/2024 14:15:00,0.189
01/05/2024 14:30:00,0.189
01/05/2024 14:45:00,0.188
01/05/2024 15:00:00,0.188
01/05/2024 15:15:00,0.187
01/05/2024 15:30:00,0.188
01/05/2024 15:45:00,0.188
01/05/2024 16:00:00,0.187
01/05/2024 16:15:00,0.186
01/05/2024 16:30:00,0.185
01/05/2024 16:45:00,0.185
01/05/2024 17:00:00,0.185
01/05/2024 17:15:00,0.184
01/05/2024 17:30:00,0.183
01/05/2024 17:45:00,0.183
01/05/2024 18:00:00,0.183
01/05/2024 18:15:00,0.182
01/05/2024 18:30:00,0.183
01/05/2024 18:45:00,0.181
01/05/2024 19:00:00,0.181
01/05/2024 19:15:00,0.181
01/05/2024 19:30:00,0.18
01/05/2024 19:45:00,0.18
01/05/2024 20:00:00,0.18
01/05/2024 20:15:00,0.179
01/05/2024 20:30:00,0.179
01/05/2024 20:45:00,0.178
01/05/2024 21:00:00,0.178
01/05/2024 21:15:00,0.177
01/05/2024 21:30:00,0.177
01/05/2024 21:45:00,0.177
01/05/2024 22:00:00,0.177
01/05/2024 22:15:00,0.177
01/05/2024 22:30:00,0.177
01/05/2024 22:45:00,0.176
01/05/2024 23:00:00,0.177
01/05/2024 23:15:00,0.176
01/05/2024 23:30:00,0.176
01/05/2024 23:45:00,0.176
02/05/2024 00:00:00,0.176
02/05/2024 00:15:00,0.175
02/05/2024 00:30:00,0.175
02/05/2024 00:45:00,0.175
02/05/2024 01:00:00,0.174
02/05/2024 01:15:00,0.175
02/05/2024 01:30:00,0.174
02/05/2024 01:45:00,0.174
02/05/2024 02:00:00,0.174
02/05/2024 02:15:00,0.174
02/05/2024 02:30:00,0.174
02/05/2024 02:45:00,0.174
02/05/2024 03:00:00,0.174
02/05/2024 03:15:00,0.174
02/05/2024 03:30:00,0.173
02/05/2024 03:45:00,0.174
02/05/2024 04:00:00,0.174
02/05/2024 04:15:00,0.173
02/05/2024 04:30:00,0.173
02/05/2024 04:45:00,0.173
02/05/2024 05:00:00,0.173
02/05/2024 05:15:00,0.172
02/05/2024 05:30:00,0.173
02/05/2024 05:45:00,0.172
02/05/2024 06:00:00,0.172
02/05/2024 06:15:00,0.172
02/05/2024 06:30:00,0.171
02/05/2024 06:45:00,0.172
02/05/2024 07:00:00,0.172
02/05/2024 07:15:00,0.172
02/05/2024 07:30:00,0.171
02/05/2024 07:45:00,0.172
02/05/2024 08:00:00,0.172
02/05/2024 08:15:00,0.171
02/05/2024 08:30:00,0.171
02/05/2024 08:45:00,0.171
02/05/2024 09:00:00,0.172
02/05/2024 09:15:00,0.171
02/05/2024 09:30:00,0.171
02/05/2024 09:45:00,0.172
02/05/2024 10:00:00,0.171
02/05/2024 10:15:00,0.171
02/05/2024 10:30:00,0.171
02/05/2024 10:45:00,0.172
02/05/2024 11:00:00,0.171
02/05/2024 11:15:00,0.171
02/05/2024 11:30:00,0.171
02/05/2024 11:45:00,0.171
02/05/2024 12:00:00,0.171
02/05/2024 12:15:00,0.171
02/05/2024 12:30:00,0.17
02/05/2024 12:45:00,0.17
02/05/2024 13:00:00,0.17
02/05/2024 13:15:00,0.17
02/05/2024 13:30:00,0.17
02/05/2024 13:45:00,0.169
02/05/2024 14:00:00,0.169
02/05/2024 14:15:00,0.169
02/05/2024 14:30:00,0.168
02/05/2024 14:45:00,0.168
02/05/2024 15:00:00,0.168
02/05/2024 15:15:00,0.168
02/05/2024 15:30:00,0.167
02/05/2024 15:45:00,0.168
02/05/2024 16:00:00,0.166
02/05/2024 16:15:00,0.166
02/05/2024 16:30:00,0.166
02/05/2024 16:45:00,0.166
02/05/2024 17:00:00,0.165
02/05/2024 17:15:00,0.164
02/05/2024 17:30:00,0.164
02/05/2024 17:45:00,0.164
02/05/2024 18:00:00,0.164
02/05/2024 18:15:00,0.163
02/05/2024 18:30:00,0.162
02/05/2024 18:45:00,0.162
02/05/2024 19:00:00,0.162
02/05/2024 19:15:00,0.161
02/05/2024 19:30:00,0.161
02/05/2024 19:45:00,0.16
02/05/2024 20:00:00,0.16
02/05/2024 20:15:00,0.159
02/05/2024 20:30:00,0.159
02/05/2024 20:45:00,0.159
02/05/2024 21:00:00,0.159
02/05/2024 21:15:00,0.159
02/05/2024 21:30:00,0.159
02/05/2024 21:45:00,0.159
02/05/2024 22:00:00,0.158
02/05/2024 22:15:00,0.158
02/05/2024 22:30:00,0.158
02/05/2024 22:45:00,0.158
02/05/2024 23:00:00,0.158
02/05/2024 23:15:00,0.158
02/05/2024 23:30:00,0.157
02/05/2024 23:45:00,0.158
03/05/2024 00:00:00,0.157
03/05/2024 00:15:00,0.157
03/05/2024 00:30:00,0.157
03/05/2024 00:45:00,0.157
03/05/2024 01:00:00,0.157
03/05/2024 01:15:00,0.157
03/05/2024 01:30:00,0.157
03/05/2024 01:45:00,0.157
03/05/2024 02:00:00,0.157
03/05/2024 02:15:00,0.157
03/05/2024 02:30:00,0.157
03/05/2024 02:45:00,0.157
03/05/2024 03:00:00,0.157
03/05/2024 03:15:00,0.157
03/05/2024 03:30:00,0.157
03/05/2024 03:45:00,0.158
03/05/2024 04:00:00,0.157
03/05/2024 04:15:00,0.157
03/05/2024 04:30:00,0.157
03/05/2024 04:45:00,0.158
03/05/2024 05:00:00,0.158
03/05/2024 05:15:00,0.157
03/05/2024 05:30:00,0.157
03/05/2024 05:45:00,0.157
03/05/2024 06:00:00,0.157
03/05/2024 06:15:00,0.157
03/05/2024 06:30:00,0.158
03/05/2024 06:45:00,0.157
03/05/2024 07:00:00,0.157
03/05/2024 07:15:00,0.158
03/05/2024 07:30:00,0.158
03/05/2024 07:45:00,0.157
03/05/2024 08:00:00,0.158
03/05/2024 08:15:00,0.157
03/05/2024 08:30:00,0.158
03/05/2024 08:45:00,0.158
03/05/2024 09:00:00,0.158
03/05/2024 09:15:00,0.158
03/05/2024 09:30:00,0.157
03/05/2024 09:45:00,0.157
03/05/2024 10:00:00,0.158
03/05/2024 10:15:00,0.157
03/05/2024 10:30:00,0.157
03/05/2024 10:45:00,0.158
03/05/2024 11:00:00,0.158
03/05/2024 11:15:00,0.158
03/05/2024 11:30:00,0.158
03/05/2024 11:45:00,0.158
03/05/2024 12:00:00,0.158
03/05/2024 12:15:00,0.157
03/05/2024 12:30:00,0.158
03/05/2024 12:45:00,0.157
03/05/2024 13:00:00,0.157
03/05/2024 13:15:00,0.157
03/05/2024 13:30:00,0.157
